Regional Weather Roundup
Issued by NWS

Home | Current Version | Previous Version | Graphics & Text | Print | Product List | Glossary On
Versions: 1 2 3 4 5 6 7 8 9 10 11 12 13 14 15 16 17 18 19 20 21 22 23 24 25 26 27 28 29 30 31 32 33 34 35 36 37 38 39 40 41 42 43 44 45 46 47 48 49 50
000
ASUS43 KDTX 231401
RWRMI
MICHIGAN HOURLY REGIONAL WEATHER ROUNDUP
NATIONAL WEATHER SERVICE DETROIT/PONTIAC MI
1000 AM EDT TUE SEP 23 2014

NOTE: "FAIR" INDICATES FEW OR NO CLOUDS BELOW 12,000 FEET WITH NO
SIGNIFICANT WEATHER AND/OR OBSTRUCTION TO VISIBILITY.

MIZ047>049-052>055-059>063-066>070-074>076-081>083-231500-
SOUTHEAST LOWER MICHIGAN

CITY           SKY/WX    TMP DP  RH WIND       PRES   REMARKS
ADRIAN         SUNNY     56  50  80 SW3       30.36R
ALMA           SUNNY     55  49  81 SW8       30.32S
ANN ARBOR      SUNNY     57  47  69 W5        30.35R
BAD AXE        SUNNY     55  49  80 W7        30.31R
CARO           SUNNY     56  49  76 SW7       30.32R
DETROIT CITY   SUNNY     59  46  62 W5        30.36R
DETROIT        SUNNY     56  49  77 S3        30.36R
FLINT          SUNNY     58  48  69 SW7       30.34S
GROSSE ILE     SUNNY     57  50  77 CALM      30.35R
HILLSDALE      SUNNY     57  50  77 CALM      30.35R
HOWELL         SUNNY     55  48  79 SW5       30.34S

CITY           SKY/WX    TMP DP  RH WIND       PRES   REMARKS
JACKSON        SUNNY     56  49  77 W3        30.35R
LAMBERTVILLE   SUNNY     55  50  82 CALM      30.36R
LANSING        SUNNY     57  46  66 SW6       30.34S
LAPEER         FAIR      57  47  69 W6        30.33S
MASON          SUNNY     55  47  73 SW3       30.34S
MONROE         SUNNY     55  48  76 CALM      30.35R
MT. CLEMENS    MOSUNNY   60  48  64 SW8       30.32R
PONTIAC        SUNNY     56  47  71 W8        30.34R
PORT HOPE        N/A     57  48  72 SW8G16    30.27R
PORT HURON     SUNNY     55  52  88 SW3       30.33S
TRI CITIES     SUNNY     56  48  74 SW8       30.32R
TROY           SUNNY     58  47  67 SW8       30.36R
SAGINAW HB     SUNNY     55  46  71 SW6       30.31S
$$
MIZ043>046-050>051-056>058-064>065-071>073-077>080-231500-
SOUTHWEST LOWER MICHIGAN

CITY           SKY/WX    TMP DP  RH WIND       PRES   REMARKS
BATTLE CREEK   SUNNY     56  46  69 SW7       30.35S
BENTON HARBOR  SUNNY     56  49  77 S3        30.34S
BIG RAPIDS     SUNNY     58  58 100 W6        30.30R
COLDWATER      SUNNY     57  49  74 CALM      30.35R
FREMONT        FAIR      55  55  97 S3        30.31R
HOLLAND        SUNNY     61  54  77 S3        30.34R
GRAND RAPIDS   SUNNY     58  52  80 SW6       30.34R
IONIA          FAIR      57  49  73 W9        30.32S
KALAMAZOO      SUNNY     57  46  66 VRB3      30.36R
LUDINGTON      SUNNY     59  58  94 SW3       30.30R
MARSHALL       SUNNY     55  46  73 SW3       30.34S
MOUNT PLEASANT SUNNY     59  52  79 W6        30.30R
MUSKEGON       SUNNY     63  56  78 SW8       30.32R
SOUTH HAVEN    SUNNY     58  51  78 S5        30.34R
$$
MIZ016>042-231500-
NORTHERN LOWER MICHIGAN

CITY           SKY/WX    TMP DP  RH WIND       PRES   REMARKS
ALPENA         SUNNY     59  50  72 SW9       30.23S
BEAVER ISLAND  SUNNY     62  56  82 SW8       30.23R
BELLAIRE       SUNNY     58  52  81 S6        30.26S
CADILLAC       FOG       51  51 100 SW6       30.29R VSB 1/2
CHARLEVOIX     SUNNY     61  57  84 SW6       30.27S
FRANKFORT      SUNNY     61  54  79 W6        30.27R
GAYLORD        SUNNY     57  51  80 W8        30.26R
GRAYLING       SUNNY     56  52  84 W8        30.27S
HARBOR SPRINGS SUNNY     60  54  81 SW7       30.24S
HOUGHTON LAKE  CLOUDY    50  50 100 SW7       30.29R FOG
MANISTEE       SUNNY     54  52  94 CALM      30.29S
OSCODA         SUNNY     58  51  78 SW9       30.25S
PELLSTON       SUNNY     61  54  77 W8        30.23R
ROGERS CITY    SUNNY     61  54  77 W10       30.23R
TRAVERSE CITY  SUNNY     60  52  74 SW6       30.25R
$$
MIZ007>008-015-231500-
EASTERN UPPER MICHIGAN

CITY           SKY/WX    TMP DP  RH WIND       PRES   REMARKS
KINROSS        SUNNY     59  55  88 W9        30.21R
MACKINAC ISLAN SUNNY     60  57  91 W8G16     30.22R
NEWBERRY       SUNNY     59  51  74 W14       30.21R
S. S. MARIE    SUNNY     58  52  80 W5        30.19R
$$
MIZ004>006-011>014-085-231500-
CENTRAL UPPER MICHIGAN

CITY           SKY/WX    TMP DP  RH WIND       PRES   REMARKS
MANISTIQUE     SUNNY     60  53  76 W3        30.22R
ESCANABA       SUNNY     57  52  82 W6        30.23R
MENOMINEE      SUNNY     55  50  82 CALM      30.25R
SAWYER-GWINN   SUNNY     59  52  77 W5        30.22R
$$
MIZ001>003-009>011-084-231500-
WESTERN UPPER MICHIGAN

CITY           SKY/WX    TMP DP  RH WIND       PRES   REMARKS
IRON MOUNTAIN  SUNNY     58  50  75 NW6       30.24R
HOUGHTON       SUNNY     61  50  67 W15       30.20R
COPPER HARBOR    N/A     63  50  62 N8        30.18R
IRONWOOD       SUNNY     57  52  82 CALM      30.21S
$$

ABBREVIATIONS USED IN REMARKS
   TC - TEMPERATURE IN CELSIUS
  WCI - WIND CHILL INDEX
   HX - HEAT INDEX
  VSB - VISIBILITY




USA.gov is the U.S. government's official web portal to all federal, state and local government web resources and services.